This demonstration page uses our WeatherBlox Daily Observations layout. Learn more.

Left ArrowRight Arrow

Hourly Observations for January 10, 2017

Temp ( °F °C ) Dew Point ( °F °C ) Humidity (%) Winds ( mph kmh ) Pressure ( in mb ) Visibility ( mi km ) Precip ( " mm )
12:15 am 00:15 Cloudy 34 1 21 -6 60 60 S 16 26 30.21 1023 10 16.0934 N/A
12:35 am 00:35 Cloudy 34 1 23 -5 65 65 S 18 30 30.18 1022 10 16.0934 N/A
12:55 am 00:55 Cloudy 32 0 25 -4 75 75 S 16 26 30.18 1022 10 16.0934 N/A
1:15 am 01:15 Cloudy 32 0 25 -4 75 75 S 15 24 30.15 1021 10 16.0934 N/A
1:35 am 01:35 Cloudy 32 0 25 -4 75 75 S 17 28 30.15 1021 10 16.0934 N/A
1:55 am 01:55 Cloudy 34 1 25 -4 70 70 S 17 28 30.12 1020 10 16.0934 N/A
2:15 am 02:15 Cloudy 34 1 23 -5 65 65 S 16 26 30.12 1020 10 16.0934 N/A
2:35 am 02:35 Cloudy 34 1 23 -5 65 65 S 17 28 30.09 1019 10 16.0934 N/A
2:55 am 02:55 Cloudy 34 1 23 -5 65 65 S 16 26 30.09 1019 10 16.0934 N/A
3:15 am 03:15 Cloudy 36 2 23 -5 60 60 S 15 24 30.09 1019 10 16.0934 N/A
3:35 am 03:35 Cloudy 36 2 25 -4 65 65 S 16 26 30.09 1019 10 16.0934 N/A
3:54 am 03:54 Cloudy 36 2 25 -4 65 65 S 14 22 30.09 1019 10 16.0934 N/A
4:15 am 04:15 Cloudy 36 2 25 -4 65 65 S 14 22 30.09 1019 10 16.0934 N/A
4:36 am 04:36 Cloudy 36 2 27 -3 70 70 S 16 26 30.06 1018 10 16.0934 N/A
4:55 am 04:55 Cloudy 36 2 27 -3 70 70 S 17 28 30.03 1017 10 16.0934 N/A
5:15 am 05:15 Cloudy 36 2 28 -2 75 75 S 17 28 30.03 1017 10 16.0934 N/A
5:35 am 05:35 Cloudy 36 2 28 -2 75 75 S 16 26 30.03 1017 10 16.0934 N/A
5:55 am 05:55 Cloudy 36 2 30 -1 81 81 S 15 24 30.03 1017 10 16.0934 N/A
6:15 am 06:15 Cloudy 36 2 32 0 87 87 S 15 24 30 1016 7 11.26538 N/A
6:35 am 06:35 Cloudy 36 2 32 0 87 87 S 17 28 30 1016 10 16.0934 N/A
6:55 am 06:55 Cloudy 36 2 34 1 93 93 S 16 26 30 1016 5 8.0467 N/A
7:15 am 07:15 Cloudy 36 2 34 1 93 93 S 18 30 29.97 1015 5 8.0467 N/A
7:35 am 07:35 Cloudy 36 2 34 1 93 93 S 18 30 29.97 1015 4 6.43736 N/A
7:55 am 07:55 Cloudy 36 2 36 2 100 100 S 17 28 29.91 1013 5 8.0467 N/A
8:15 am 08:15 Cloudy 36 2 36 2 100 100 S 21 33 29.91 1013 7 11.26538 N/A
8:35 am 08:35 Cloudy 36 2 36 2 100 100 S 18 30 29.91 1013 7 11.26538 N/A
8:55 am 08:55 Cloudy 36 2 36 2 100 100 S 18 30 29.91 1013 10 16.0934 N/A
9:15 am 09:15 Cloudy 37 3 36 2 93 93 S 21 33 29.91 1013 7 11.26538 N/A
9:35 am 09:35 Cloudy 37 3 36 2 93 93 S 20 31 29.88 1012 7 11.26538 N/A
9:55 am 09:55 Cloudy 37 3 36 2 93 93 S 18 30 29.88 1012 7 11.26538 N/A
10:15 am 10:15 Cloudy 37 3 36 2 93 93 S 20 31 29.88 1012 5 8.0467 N/A
10:35 am 10:35 Cloudy 37 3 36 2 93 93 S 18 30 29.85 1011 7 11.26538 N/A
10:55 am 10:55 Cloudy 37 3 36 2 93 93 S 22 35 29.83 1010 10 16.0934 N/A
11:16 am 11:16 Cloudy 39 4 36 2 87 87 S 22 35 29.8 1009 10 16.0934 N/A
11:35 am 11:35 Cloudy 39 4 36 2 87 87 S 20 31 29.8 1009 10 16.0934 N/A
11:55 am 11:55 Cloudy 41 5 36 2 81 81 S 20 31 29.8 1009 10 16.0934 N/A
12:15 pm 12:15 Cloudy 41 5 37 3 87 87 S 21 33 29.77 1008 10 16.0934 N/A
12:35 pm 12:35 Cloudy 41 5 37 3 87 87 S 18 30 29.74 1007 10 16.0934 N/A
12:55 pm 12:55 Cloudy 43 6 39 4 87 87 S 18 30 29.71 1006 10 16.0934 N/A
1:15 pm 13:15 Cloudy 45 7 39 4 81 81 S 16 26 29.74 1007 10 16.0934 N/A
1:33 pm 13:33 Cloudy 45 7 39 4 81 81 S 20 31 29.74 1007 10 16.0934 N/A
1:55 pm 13:55 Cloudy 45 7 41 5 87 87 S 21 33 29.68 1005 5 8.0467 N/A
2:15 pm 14:15 Cloudy 45 7 41 5 87 87 S 20 31 29.71 1006 10 16.0934 N/A
2:35 pm 14:35 Cloudy 45 7 41 5 87 87 S 20 31 29.68 1005 10 16.0934 N/A
2:55 pm 14:55 Cloudy 45 7 41 5 87 87 S 18 30 29.68 1005 5 8.0467 N/A
3:15 pm 15:15 Cloudy 45 7 41 5 87 87 S 24 39 29.65 1004 7 11.26538 N/A
3:35 pm 15:35 Cloudy 45 7 43 6 93 93 S 21 33 29.65 1004 10 16.0934 N/A
3:55 pm 15:55 Cloudy 45 7 43 6 93 93 S 20 31 29.68 1005 7 11.26538 N/A
4:15 pm 16:15 Cloudy 45 7 43 6 93 93 S 17 28 29.65 1004 7 11.26538 N/A
4:35 pm 16:35 Cloudy 45 7 43 6 93 93 S 18 30 29.65 1004 10 16.0934 N/A
4:55 pm 16:55 Cloudy 46 8 45 7 93 93 S 24 39 29.62 1003 10 16.0934 N/A
5:15 pm 17:15 Cloudy 46 8 45 7 93 93 SSW 23 37 29.62 1003 7 11.26538 N/A
5:35 pm 17:35 Cloudy 48 9 45 7 87 87 SSW 17 28 29.62 1003 5 8.0467 N/A
5:55 pm 17:55 Cloudy 48 9 46 8 94 94 SSW 17 28 29.62 1003 2.5 4.02335 N/A
6:15 pm 18:15 Cloudy 48 9 46 8 94 94 WSW 15 24 29.65 1004 3 4.82802 N/A
6:35 pm 18:35 Cloudy 48 9 46 8 94 94 SSW 13 20 29.62 1003 7 11.26538 N/A
6:55 pm 18:55 Cloudy 50 10 46 8 88 88 SW 24 39 29.62 1003 10 16.0934 N/A
7:15 pm 19:15 Mostly Cloudy 52 11 48 9 88 88 SSW 25 41 29.62 1003 10 16.0934 N/A
7:34 pm 19:34 Mostly Cloudy 52 11 48 9 88 88 SW 25 41 29.65 1004 10 16.0934 N/A
7:55 pm 19:55 Cloudy 52 11 48 9 88 88 W 37 59 29.71 1006 4 6.43736 N/A
8:15 pm 20:15 Mostly Cloudy 48 9 43 6 82 82 W 28 44 29.74 1007 10 16.0934 N/A
8:35 pm 20:35 Mostly Cloudy 45 7 39 4 81 81 W 29 46 29.83 1010 10 16.0934 N/A
8:55 pm 20:55 Partly Cloudy 41 5 36 2 81 81 W 30 48 29.85 1011 10 16.0934 N/A
9:14 pm 21:14 Clear 39 4 34 1 81 81 W 25 41 29.88 1012 10 16.0934 N/A
9:35 pm 21:35 Clear 37 3 34 1 87 87 W 17 28 29.94 1014 10 16.0934 N/A
9:55 pm 21:55 Clear 37 3 32 0 81 81 W 18 30 29.94 1014 10 16.0934 N/A
10:07 pm 22:07 Clear 36 2 32 0 87 87 W 20 31 29.97 1015 10 16.0934 N/A
10:34 pm 22:34 Clear 36 2 32 0 87 87 WSW 17 28 30.03 1017 10 16.0934 N/A
10:55 pm 22:55 Clear 36 2 32 0 87 87 W 13 20 30.03 1017 10 16.0934 N/A
11:14 pm 23:14 Clear 36 2 32 0 87 87 W 20 31 30.06 1018 10 16.0934 N/A
11:35 pm 23:35 Clear 34 1 30 -1 87 87 W 18 30 30.09 1019 10 16.0934 N/A
11:55 pm 23:55 Clear 34 1 30 -1 87 87 WSW 16 26 30.09 1019 10 16.0934 N/A

Powered by AerisWeather